Afton, Prince Edward Island

6:15 AM ADT on May 23, 2017 (GMT -0300)
Afton

Weather History for 71706 - August, 2013

Change the Weather History Date:

Monday, August 26, 2013

  Actual Average Record
Temperature  
Mean Temperature 64 °F -  
Max Temperature 72 °F 65 °F - ()
Min Temperature 55 °F 49 °F - ()
Degree Days  
Heating Degree Days 2    
Growing Degree Days 14 (Base 50)    
Moisture  
Dew Point 57 °F    
Average Humidity 77    
Maximum Humidity 89    
Minimum Humidity 44    
Precipitation  
Precipitation 0.04 in 0.12 in - ()
Sea Level Pressure  
Sea Level Pressure 29.98 in    
Wind  
Wind Speed 8 mph ()    
Max Wind Speed 14 mph    
Max Gust Speed 20 mph    
Visibility 15.0 miles    
Events Rain    
T = Trace of Precipitation, MM = Missing Value Source: Averaged Metar Reports

Daily Weather History Graph

Daily Weather History Graph

Search for Another Location

Airport or City:

Trip Planner

Search our weather history database for the weather conditions in past years. The results will help you decide how hot, cold, wet, or windy it might be!

Date:

Astronomy

Aug. 26, 2013 Rise Set
Actual Time 6:25 AM ADT 8:02 PM ADT
Civil Twilight 5:53 AM ADT 8:33 PM ADT
Nautical Twilight 5:15 AM ADT 9:11 PM ADT
Astronomical Twilight 4:33 AM ADT 9:53 PM ADT
Moon 10:45 PM ADT (8/26) 12:46 PM ADT (8/26)
Length of Visible Light 14h 39m
Length of Day
13h 36m
Waning Gibbous, 67% of the Moon is Illuminated
Aug 26
Waning Gibbous
Aug 28
Last Quarter
Sep 5
New
Sep 12
First Quarter
Sep 19
Full

Hourly Weather History & Observations

Time (ADT) Temp. Dew Point Humidity Pressure Visibility Wind Dir Wind Speed Gust Speed Precip Events Conditions
12:00 AM 59.0 °F 55.4 °F 88% 30.16 in 15.0 mi SE 5.8 mph - N/A   Partly Cloudy
1:00 AM 59.0 °F 55.4 °F 88% 30.14 in 15.0 mi SSE 3.5 mph - N/A   Partly Cloudy
2:00 AM 59.0 °F 55.4 °F 88% 30.13 in 15.0 mi South 5.8 mph - N/A   Partly Cloudy
3:00 AM 60.8 °F 55.4 °F 82% 30.12 in 15.0 mi SW 6.9 mph - N/A   Partly Cloudy
4:00 AM 59.0 °F 53.6 °F 82% 30.11 in 15.0 mi SSW 8.1 mph - N/A   Partly Cloudy
5:00 AM 59.0 °F 53.6 °F 82% 30.09 in 15.0 mi SSW 6.9 mph - N/A   Partly Cloudy
6:00 AM 59.0 °F 53.6 °F 82% 30.08 in 15.0 mi SSW 6.9 mph - N/A   Mostly Cloudy
7:00 AM 59.0 °F 53.6 °F 82% 30.07 in 15.0 mi South 6.9 mph - N/A   Mostly Cloudy
8:00 AM 62.6 °F 55.4 °F 77% 30.07 in 15.0 mi SSW 9.2 mph - N/A   Overcast
9:00 AM 64 °F 55 °F 65% 30.06 in 15 mi SSW 10.4 mph - -   Overcast
9:00 AM 64.4 °F 55.4 °F 73% 30.06 in 15.0 mi SSW 9.2 mph - N/A   Overcast
10:00 AM 66.2 °F 53.6 °F 64% 30.04 in 15.0 mi South 12.7 mph - N/A   Overcast
11:00 AM 66.2 °F 53.6 °F 64% 30.02 in 15.0 mi South 13.8 mph - N/A   Overcast
12:00 PM 68.0 °F 55.4 °F 64% 30.01 in 15.0 mi South 9.2 mph - N/A   Overcast
1:00 PM 68.0 °F 53.6 °F 60% 29.99 in 15.0 mi SSW 12.7 mph - N/A   Overcast
2:00 PM 69.8 °F 53.6 °F 56% 29.96 in 15.0 mi South 13.8 mph - N/A   Overcast
3:00 PM 71 °F 54 °F 44% 29.95 in 15 mi SSW 11.5 mph - -   Overcast
3:00 PM 71.6 °F 53.6 °F 53% 29.95 in 15.0 mi SSW 11.5 mph 17.3 mph N/A   Overcast
4:00 PM 69.8 °F 55.4 °F 60% 29.93 in 15.0 mi SSW 11.5 mph - N/A   Overcast
4:23 PM 66.2 °F 57.2 °F 73% 29.93 in 15.0 mi WSW 8.1 mph - N/A Rain Light Rain Showers
5:00 PM 66.2 °F 59.0 °F 78% 29.93 in 15.0 mi SSW 8.1 mph - N/A Rain Light Rain Showers
5:30 PM 66.2 °F 59.0 °F 78% 29.91 in 15.0 mi SSW 11.5 mph - N/A   Overcast
6:00 PM 66.2 °F 59.0 °F 78% 29.91 in 15.0 mi SSW 9.2 mph - N/A   Overcast
7:00 PM 66.2 °F 59.0 °F 78% 29.89 in 15.0 mi SSW 12.7 mph - N/A   Overcast
8:00 PM 66.2 °F 60.8 °F 83% 29.88 in 15.0 mi SSW 12.7 mph - N/A   Overcast
8:26 PM 64.4 °F 60.8 °F 88% 29.88 in 15.0 mi SW 10.4 mph 19.6 mph N/A Rain Light Rain Showers
9:00 PM 64 °F 62 °F 89% 29.88 in 15 mi SSW 10.4 mph - - Rain Light Rain Showers
9:00 PM 64.4 °F 60.8 °F 88% 29.88 in 15.0 mi SSW 9.2 mph - N/A Rain Light Rain Showers
10:00 PM 64.4 °F 60.8 °F 88% 29.87 in 15.0 mi SW 11.5 mph 18.4 mph N/A Rain Light Rain Showers
10:46 PM 64.4 °F 60.8 °F 88% 29.87 in 15.0 mi SSW 13.8 mph - N/A   Overcast
11:00 PM 64.4 °F 60.8 °F 88% 29.86 in 15.0 mi SSW 10.4 mph - N/A   Overcast
11:07 PM 64.4 °F 60.8 °F 88% 29.86 in 15.0 mi SSW 12.7 mph - N/A Rain Light Rain Showers
11:29 PM 64.4 °F 60.8 °F 88% 29.86 in 15.0 mi SSW 10.4 mph 19.6 mph N/A   Overcast